Rankin Inlet, Nunavut

1:51 AM CST on February 23, 2017 (GMT -0600)
Rankin Inlet

Weather History for CYRT - January, 2013

Change the Weather History Date:

Thursday, January 10, 2013

  Actual Average Record
Temperature  
Mean Temperature -41 °F -  
Max Temperature -36 °F -14 °F 8 °F (2011)
Min Temperature -44 °F -26 °F -44 °F (2013)
Degree Days  
Heating Degree Days 106    
Moisture  
Dew Point -49 °F    
Average Humidity 61    
Maximum Humidity 67    
Minimum Humidity 42    
Precipitation  
Precipitation 0.00 in - - ()
Sea Level Pressure  
Sea Level Pressure 30.16 in    
Wind  
Wind Speed 8 mph ()    
Max Wind Speed 14 mph    
Max Gust Speed -    
Visibility 13.9 miles    
Events Snow    
Averages and records for this station are not official NWS values.
T = Trace of Precipitation, MM = Missing Value Source: Averaged Metar Reports

Daily Weather History Graph

Daily Weather History Graph

Search for Another Location

Airport or City:

Trip Planner

Search our weather history database for the weather conditions in past years. The results will help you decide how hot, cold, wet, or windy it might be!

Date:

Astronomy

Jan. 10, 2013 Rise Set
Actual Time 9:29 AM CST 3:03 PM CST
Civil Twilight 8:25 AM CST 4:07 PM CST
Nautical Twilight 7:23 AM CST 5:09 PM CST
Astronomical Twilight 6:28 AM CST 6:04 PM CST
Moon 8:06 AM CST (1/10) 2:16 PM CST (1/10)
Length of Visible Light 7h 41m
Length of Day
5h 33m
Waning Crescent, 2% of the Moon is Illuminated
Jan 10
Waning Crescent
Jan 11
New
Jan 18
First Quarter
Jan 26
Full
Feb 3
Last Quarter

Hourly Weather History & Observations

Time (CST) Temp. Windchill Dew Point Humidity Pressure Visibility Wind Dir Wind Speed Gust Speed Precip Events Conditions
12:00 AM -42 °F - -50 °F 42% 30.03 in 15 mi West 12.7 mph - - Snow Snow
12:00 AM -41.8 °F -70.7 °F -50.8 °F 60% 30.03 in 15.0 mi West 12.7 mph - N/A   Clear
1:00 AM -43.6 °F -74.1 °F -50.8 °F 67% 30.04 in 15.0 mi WNW 13.8 mph - N/A   Clear
2:00 AM -41.8 °F -69.5 °F -50.8 °F 60% 30.07 in 15.0 mi WNW 11.5 mph - N/A   Clear
3:00 AM -41.8 °F -70.7 °F -49.0 °F 67% 30.08 in 15.0 mi WNW 12.7 mph - N/A   Clear
4:00 AM -41.8 °F -68.2 °F -50.8 °F 60% 30.10 in 15.0 mi West 10.4 mph - N/A   Clear
5:00 AM -41.8 °F -68.2 °F -50.8 °F 60% 30.10 in 15.0 mi WNW 10.4 mph - N/A   Clear
6:00 AM -43 °F - -51 °F 43% 30.11 in 15 mi WNW 10.4 mph - - Snow Snow
7:00 AM -41.8 °F -61.2 °F -49.0 °F 67% 30.12 in 15.0 mi West 5.8 mph - N/A   Clear
8:00 AM -43.6 °F -67.3 °F -50.8 °F 67% 30.13 in 15.0 mi NW 8.1 mph - N/A   Clear
10:00 AM -41.8 °F -61.2 °F -49.0 °F 67% 30.17 in 15.0 mi West 5.8 mph - N/A   Partly Cloudy
11:00 AM -40.0 °F -56.6 °F -49.0 °F 60% 30.19 in 15.0 mi West 4.6 mph - N/A   Partly Cloudy
12:00 PM -40 °F - -48 °F 45% 30.19 in 15 mi WSW 5.8 mph - - Snow Snow
12:00 PM -40.0 °F -59.0 °F -47.2 °F 67% 30.19 in 15.0 mi WSW 5.8 mph - N/A   Clear
1:00 PM -41.8 °F -61.2 °F -49.0 °F 67% 30.19 in 15.0 mi NNW 5.8 mph - N/A   Clear
2:00 PM -40.0 °F -64.5 °F -47.2 °F 67% 30.21 in 15.0 mi West 9.2 mph - N/A   Clear
3:00 PM -41.8 °F -55.6 °F -49.0 °F 67% 30.22 in 10.0 mi NW 3.5 mph - N/A   Clear
4:00 PM -41.8 °F -55.6 °F -49.0 °F 67% 30.22 in 10.0 mi North 3.5 mph - N/A   Partly Cloudy
5:00 PM -40.0 °F - -47.2 °F 67% 30.22 in 10.0 mi North 2.3 mph - N/A   Partly Cloudy
6:00 PM -40 °F - -48 °F 46% 30.23 in 12 mi SW 4.6 mph - - Snow Snow
6:00 PM -40.0 °F -56.6 °F -47.2 °F 67% 30.23 in 12.0 mi SW 4.6 mph - N/A   Clear
7:00 PM -38.2 °F - -47.2 °F 61% 30.23 in 12.0 mi West 2.3 mph - N/A   Clear
8:00 PM -38.2 °F -58.9 °F -47.2 °F 61% 30.25 in 15.0 mi SSW 6.9 mph - N/A   Clear
9:00 PM -40.0 °F - -47.2 °F 67% 30.25 in 15.0 mi Calm Calm - N/A   Clear
10:00 PM -40.0 °F - -47.2 °F 67% 30.25 in 10.0 mi Calm Calm - N/A   Clear
11:00 PM -36.4 °F -52.4 °F -45.4 °F 61% 30.23 in 15.0 mi SSE 4.6 mph - N/A   Clear